Tracking 32138 objects as of 8-Nov-2025
HD Live streaming from Space Station
objects crossing your sky now

STARLINK-31704

Track STARLINK-31704 now!
10-day predictions
STARLINK-31704 is classified as:


NORAD ID: 59586
Int'l Code: 2024-076Y
Perigee: 489.2 km
Apogee: 491.0 km
Inclination: 43.0 °
Period: 94.3 minutes
Semi major axis: 6861 km
RCS: Unknown
Launch date: April 23, 2024
Source: United States (US)
Launch site: AIR FORCE EASTERN TEST RANGE (AFETR)
Your satellite tracking list
Your tracking list is empty




NASA's NSSDC Master Catalog

Two Line Element Set (TLE):
1 59586U 24076Y   25312.41697287  .00037080  00000-0  13491-2 0  9997
2 59586  43.0012 290.3791 0001345 261.7329  98.3370 15.27606613 88440
Source of the keplerian elements: AFSPC